TimeCST,TemperatureF,Dew PointF,Humidity,Sea Level PressureIn,VisibilityMPH,Wind Direction,Wind SpeedMPH,Gust SpeedMPH,PrecipitationIn,Events,Conditions,WindDirDegrees,DateUTC
12:15 AM,39.7,32.0,74,30.06,10.0,South,9.2,-,N/A,,Overcast,170,2012-11-30 06:15:00
12:35 AM,39.7,32.0,74,30.05,10.0,South,8.1,-,N/A,,Overcast,170,2012-11-30 06:35:00
12:55 AM,39.7,32.0,74,30.05,10.0,South,11.5,-,N/A,,Overcast,190,2012-11-30 06:55:00
1:15 AM,41.0,32.0,70,30.05,10.0,South,11.5,-,N/A,,Overcast,180,2012-11-30 07:15:00
1:35 AM,41.0,32.0,70,30.05,10.0,South,10.4,-,N/A,,Overcast,180,2012-11-30 07:35:00
1:55 AM,41.0,32.2,71,30.05,10.0,South,10.4,-,N/A,,Overcast,180,2012-11-30 07:55:00
2:15 AM,41.0,32.2,71,30.05,10.0,South,10.4,-,N/A,,Overcast,180,2012-11-30 08:15:00
2:35 AM,40.1,32.0,73,30.05,10.0,South,9.2,-,N/A,,Mostly Cloudy,180,2012-11-30 08:35:00
2:55 AM,39.6,32.2,75,30.03,10.0,South,9.2,-,N/A,,Scattered Clouds,180,2012-11-30 08:55:00
3:15 AM,40.3,32.5,74,30.04,10.0,South,5.8,-,N/A,,Mostly Cloudy,190,2012-11-30 09:15:00
3:35 AM,40.8,33.1,74,30.04,10.0,South,5.8,-,N/A,,Overcast,180,2012-11-30 09:35:00
3:55 AM,39.7,32.2,74,30.03,10.0,South,5.8,-,N/A,,Mostly Cloudy,180,2012-11-30 09:55:00
4:15 AM,38.7,32.4,78,30.03,10.0,South,4.6,-,N/A,,Scattered Clouds,180,2012-11-30 10:15:00
4:35 AM,37.2,31.5,80,30.03,10.0,SSE,3.5,-,N/A,,Clear,150,2012-11-30 10:35:00
4:55 AM,39.6,32.9,77,30.04,10.0,SSE,4.6,-,N/A,,Clear,160,2012-11-30 10:55:00
5:15 AM,37.6,31.8,80,30.03,10.0,SSE,8.1,-,N/A,,Clear,160,2012-11-30 11:15:00
5:35 AM,36.9,31.8,82,30.03,10.0,SSE,5.8,-,N/A,,Clear,150,2012-11-30 11:35:00
5:55 AM,36.0,31.5,84,30.04,10.0,SE,3.5,-,N/A,,Clear,130,2012-11-30 11:55:00
6:35 AM,37.0,32.0,82,30.04,10.0,SE,4.6,-,N/A,,Clear,140,2012-11-30 12:35:00
6:55 AM,35.1,31.5,87,30.04,10.0,Calm,Calm,-,N/A,,Clear,0,2012-11-30 12:55:00
7:15 AM,33.1,29.8,88,30.04,10.0,Calm,Calm,-,N/A,,Clear,0,2012-11-30 13:15:00
7:35 AM,34.3,30.9,87,30.05,10.0,Calm,Calm,-,N/A,,Clear,0,2012-11-30 13:35:00
7:55 AM,35.6,31.5,85,30.07,10.0,Calm,Calm,-,N/A,,Clear,0,2012-11-30 13:55:00
8:15 AM,36.9,32.2,83,30.07,10.0,Calm,Calm,-,N/A,,Clear,0,2012-11-30 14:15:00
8:35 AM,39.6,33.3,78,30.07,10.0,Calm,Calm,-,N/A,,Clear,0,2012-11-30 14:35:00
8:55 AM,41.2,33.3,73,30.07,10.0,Calm,Calm,-,N/A,,Clear,0,2012-11-30 14:55:00
9:15 AM,43.2,33.4,69,30.07,10.0,Calm,Calm,-,N/A,,Clear,0,2012-11-30 15:15:00
9:35 AM,44.2,33.4,66,30.07,10.0,Calm,Calm,-,N/A,,Clear,0,2012-11-30 15:35:00
9:55 AM,45.9,32.9,61,30.08,10.0,SW,4.6,-,N/A,,Clear,220,2012-11-30 15:55:00
10:15 AM,46.4,32.9,59,30.07,10.0,SSW,5.8,-,N/A,,Clear,210,2012-11-30 16:15:00
10:35 AM,47.3,33.3,58,30.07,10.0,SW,4.6,-,N/A,,Clear,220,2012-11-30 16:35:00
10:55 AM,48.2,33.4,57,30.07,10.0,Calm,Calm,-,N/A,,Clear,0,2012-11-30 16:55:00
11:15 AM,49.1,33.8,56,30.05,10.0,Calm,Calm,-,N/A,,Clear,0,2012-11-30 17:15:00
11:35 AM,50.4,34.5,55,30.05,10.0,Calm,Calm,-,N/A,,Clear,0,2012-11-30 17:35:00
11:55 AM,50.9,34.3,53,30.05,10.0,Calm,Calm,-,N/A,,Clear,0,2012-11-30 17:55:00
12:15 PM,51.1,34.7,54,30.05,10.0,Calm,Calm,-,N/A,,Clear,0,2012-11-30 18:15:00
12:35 PM,52.2,34.9,52,30.05,10.0,NNW,3.5,-,N/A,,Clear,340,2012-11-30 18:35:00
12:55 PM,52.7,35.4,52,30.05,10.0,Calm,Calm,-,N/A,,Clear,0,2012-11-30 18:55:00
1:15 PM,52.9,35.2,51,30.05,10.0,Calm,Calm,-,N/A,,Clear,0,2012-11-30 19:15:00
1:35 PM,53.2,35.4,51,30.05,10.0,Calm,Calm,-,N/A,,Clear,0,2012-11-30 19:35:00
1:55 PM,53.8,34.7,48,30.04,10.0,Calm,Calm,-,N/A,,Clear,0,2012-11-30 19:55:00
2:15 PM,54.3,35.4,49,30.04,10.0,Calm,Calm,-,N/A,,Clear,0,2012-11-30 20:15:00
2:35 PM,53.6,34.7,49,30.05,10.0,Calm,Calm,-,N/A,,Clear,0,2012-11-30 20:35:00
2:55 PM,53.6,34.9,49,30.05,10.0,Calm,Calm,-,N/A,,Clear,0,2012-11-30 20:55:00
3:15 PM,53.6,34.9,49,30.06,10.0,Calm,Calm,-,N/A,,Clear,0,2012-11-30 21:15:00
3:35 PM,52.9,35.2,51,30.07,10.0,Calm,Calm,-,N/A,,Clear,0,2012-11-30 21:35:00
3:55 PM,50.9,34.9,54,30.08,10.0,NE,3.5,-,N/A,,Clear,50,2012-11-30 21:55:00
4:15 PM,49.1,33.4,55,30.09,10.0,NE,4.6,-,N/A,,Clear,40,2012-11-30 22:15:00
4:35 PM,46.9,33.1,59,30.09,10.0,NNE,6.9,-,N/A,,Clear,30,2012-11-30 22:35:00
4:55 PM,46.4,33.4,61,30.10,10.0,NE,6.9,-,N/A,,Clear,40,2012-11-30 22:55:00
5:15 PM,45.1,33.1,63,30.11,10.0,NE,8.1,-,N/A,,Clear,50,2012-11-30 23:15:00
5:35 PM,44.8,34.3,67,30.11,10.0,NE,10.4,-,N/A,,Clear,50,2012-11-30 23:35:00
5:55 PM,45.0,34.5,67,30.11,10.0,ENE,6.9,-,N/A,,Clear,60,2012-11-30 23:55:00
6:15 PM,45.1,34.5,66,30.11,10.0,ENE,9.2,-,N/A,,Clear,70,2012-12-01 00:15:00
6:35 PM,45.1,34.3,66,30.12,10.0,ENE,6.9,-,N/A,,Clear,70,2012-12-01 00:35:00
6:55 PM,44.6,34.5,68,30.12,10.0,ENE,9.2,-,N/A,,Clear,70,2012-12-01 00:55:00
7:15 PM,43.7,34.2,69,30.12,10.0,ENE,9.2,-,N/A,,Clear,70,2012-12-01 01:15:00
7:35 PM,42.1,33.8,72,30.12,10.0,ENE,9.2,-,N/A,,Clear,70,2012-12-01 01:35:00
7:55 PM,41.0,33.8,76,30.12,10.0,East,9.2,-,N/A,,Clear,80,2012-12-01 01:55:00
8:15 PM,39.7,33.3,78,30.12,10.0,East,9.2,-,N/A,,Clear,80,2012-12-01 02:15:00
8:35 PM,39.6,33.8,80,30.11,5.0,ENE,9.2,-,N/A,,Haze,70,2012-12-01 02:35:00
8:55 PM,39.2,34.2,82,30.11,4.0,East,8.1,-,N/A,,Haze,80,2012-12-01 02:55:00
9:15 PM,38.3,33.4,83,30.11,4.0,ENE,9.2,-,N/A,,Clear,70,2012-12-01 03:15:00
9:35 PM,37.6,33.4,85,30.12,4.0,East,8.1,-,N/A,,Clear,80,2012-12-01 03:35:00
9:55 PM,37.6,33.8,86,30.11,4.0,ENE,6.9,-,N/A,,Clear,70,2012-12-01 03:55:00
10:15 PM,36.9,33.3,87,30.11,5.0,ENE,5.8,-,N/A,,Clear,70,2012-12-01 04:15:00
10:35 PM,36.1,33.1,89,30.11,4.0,East,5.8,-,N/A,,Clear,80,2012-12-01 04:35:00
10:55 PM,35.6,32.9,90,30.11,3.0,ENE,4.6,-,N/A,,Clear,70,2012-12-01 04:55:00
11:15 PM,34.3,32.0,91,30.12,7.0,NE,6.9,-,N/A,,Clear,40,2012-12-01 05:15:00
11:35 PM,33.8,32.0,93,30.11,5.0,ENE,6.9,-,N/A,,Clear,60,2012-12-01 05:35:00
11:55 PM,34.3,32.4,92,30.10,5.0,ENE,8.1,-,N/A,,Clear,70,2012-12-01 05:55:00